CW5302 Weather Reports


Display with metric or nautical units.
time (UTC)temp
F
wind
direction
speed
MPH
gust
MPH
rain 1hr
in
rain 24hr
in
rain mn
in
humidity
%
barometer
mb
20200814203330 85 115 0.0 10.0 0.00 0.00 0.00 27 1015.9
20200814202347 84 30 2.0 6.0 0.00 0.00 0.00 28 1016.1
20200814201339 84 59 2.0 6.0 0.00 0.00 0.00 28 1016.2
20200814200331 83 27 2.0 8.0 0.00 0.00 0.00 27 1016.2
20200814195347 82 25 3.0 6.0 0.00 0.00 0.00 27 1016.6
20200814194339 81 19 1.0 7.0 0.00 0.00 0.00 29 1016.6
20200814193336 79 196 2.0 7.0 0.00 0.00 0.00 32 1016.6
20200814192348 79 172 2.0 4.0 0.00 0.00 0.00 31 1017.0
20200814191340 78 226 1.0 5.0 0.00 0.00 0.00 33 1017.2
20200814190331 77 263 1.0 4.0 0.00 0.00 0.00 34 1017.2
20200814185347 76 163 2.0 5.0 0.00 0.00 0.00 33 1017.6
20200814184343 76 187 3.0 4.0 0.00 0.00 0.00 33 1017.6
20200814183336 75 187 2.0 4.0 0.00 0.00 0.00 33 1017.6
20200814182349 75 215 2.0 5.0 0.00 0.00 0.00 33 1017.7
20200814181339 75 232 1.0 5.0 0.00 0.00 0.00 35 1018.1
20200814180333 74 232 1.0 4.0 0.00 0.00 0.00 34 1018.1
20200814175348 74 259 0.0 4.0 0.00 0.00 0.00 35 1018.2
20200814174340 72 36 0.0 3.0 0.00 0.00 0.00 37 1018.2
20200814173332 72 180 1.0 3.0 0.00 0.00 0.00 38 1018.2
20200814172344 71 192 0.0 3.0 0.00 0.00 0.00 40 1018.3
20200814171336 71 178 1.0 5.0 0.00 0.00 0.00 41 1018.4
20200814170333 71 297 0.0 3.0 0.00 0.00 0.00 40 1018.4
20200814165344 70 298 0.0 3.0 0.00 0.00 0.00 41 1018.6
20200814164336 69 296 3.0 5.0 0.00 0.00 0.00 42 1018.7
20200814163329 68 212 0.0 3.0 0.00 0.00 0.00 42 1018.7
20200814162341 69 355 0.0 2.0 0.00 0.00 0.00 42 1018.7
20200814161337 68 355 0.0 4.0 0.00 0.00 0.00 43 1018.7
20200814160345 66 269 0.0 1.0 0.00 0.00 0.00 48 1018.7
20200814155335 63 269 0.0 1.0 0.00 0.00 0.00 51 1018.8
20200814154347 62 269 0.0 1.0 0.00 0.00 0.00 52 1019.0
20200814153339 60 269 0.0 1.0 0.00 0.00 0.00 53 1019.0
20200814152335 57 269 0.0 1.0 0.00 0.00 0.00 57 1019.0
20200814151331 55 269 0.0 1.0 0.00 0.00 0.00 60 1019.0
20200814150346 53 269 0.0 0.0 0.00 0.00 0.00 62 1019.0
20200814145339 52 269 0.0 1.0 0.00 0.00 0.00 64 1019.1
20200814144336 51 269 0.0 1.0 0.00 0.00 0.00 67 1019.0
20200814143347 50 269 0.0 1.0 0.00 0.00 0.00 68 1019.0
20200814142340 49 269 0.0 1.0 0.00 0.00 0.00 71 1019.1
20200814141331 49 269 0.0 0.0 0.00 0.00 0.00 71 1019.0
20200814140343 48 269 0.0 0.0 0.00 0.00 0.00 72 1019.0
20200814135339 48 269 0.0 0.0 0.00 0.00 0.00 72 1018.9
20200814134331 48 269 0.0 0.0 0.00 0.00 0.00 71 1018.8
20200814133344 48 269 0.0 0.0 0.00 0.00 0.00 71 1018.8
20200814132339 48 269 0.0 0.0 0.00 0.00 0.00 71 1018.7
20200814131332 48 269 0.0 0.0 0.00 0.00 0.00 71 1018.6
20200814130347 49 269 0.0 0.0 0.00 0.00 0.00 70 1018.6
20200814125339 49 269 0.0 0.0 0.00 0.00 0.00 70 1018.6
20200814124331 49 269 0.0 0.0 0.00 0.00 0.00 70 1018.4
20200814123343 49 269 0.0 0.0 0.00 0.00 0.00 69 1018.4
20200814122336 49 269 0.0 0.0 0.00 0.00 0.00 68 1018.4
20200814121331 50 269 0.0 0.0 0.00 0.00 0.00 67 1018.4
20200814120344 50 269 0.0 0.0 0.00 0.00 0.00 66 1018.4
20200814115338 50 269 0.0 0.0 0.00 0.00 0.00 66 1018.3
20200814114330 51 269 0.0 0.0 0.00 0.00 0.00 73 1018.4
20200814113341 51 269 0.0 0.0 0.00 0.00 0.00 63 1018.4
20200814112338 51 269 0.0 0.0 0.00 0.00 0.00 64 1018.4
20200814111330 51 269 0.0 0.0 0.00 0.00 0.00 63 1018.3
20200814110342 51 269 0.0 0.0 0.00 0.00 0.00 62 1018.3
20200814105334 52 269 0.0 0.0 0.00 0.00 0.00 61 1018.3
20200814104346 52 269 0.0 0.0 0.00 0.00 0.00 60 1018.2
20200814103342 52 269 0.0 0.0 0.00 0.00 0.00 60 1018.2
20200814102334 52 269 0.0 0.0 0.00 0.00 0.00 59 1018.2
20200814101349 53 269 0.0 0.0 0.00 0.00 0.00 59 1018.2
20200814100337 53 269 0.0 0.0 0.00 0.00 0.00 58 1018.2
20200814095328 53 269 0.0 0.0 0.00 0.00 0.00 56 1018.2
20200814094345 54 269 0.0 0.0 0.00 0.00 0.00 55 1018.2
20200814093336 54 269 0.0 0.0 0.00 0.00 0.00 55 1018.2
20200814092349 54 269 0.0 0.0 0.00 0.00 0.00 56 1018.2
20200814091340 54 269 0.0 0.0 0.00 0.00 0.00 54 1018.2
20200814090331 55 269 0.0 0.0 0.00 0.00 0.00 54 1018.2
20200814085330 55 269 0.0 0.0 0.00 0.00 0.00 54 1018.2
20200814084342 55 269 0.0 0.0 0.00 0.00 0.00 53 1018.1
20200814083335 56 269 0.0 0.0 0.00 0.00 0.00 52 1018.1
20200814082348 56 269 0.0 0.0 0.00 0.00 0.00 55 1018.1
20200814081339 57 269 0.0 0.0 0.00 0.00 0.00 54 1018.1
20200814080335 57 269 0.0 0.0 0.00 0.00 0.00 54 1018.1
20200814075329 58 269 0.0 0.0 0.00 0.00 0.00 53 1018.1
20200814074341 58 269 0.0 0.0 0.00 0.00 0.00 51 1018.1
20200814073332 59 269 0.0 0.0 0.00 0.00 0.00 50 1018.1
20200814072329 60 269 0.0 2.0 0.00 0.00 0.00 51 1018.1
20200814071342 60 269 0.0 0.0 0.00 0.00 0.00 44 1018.1
20200814070334 61 269 0.0 1.0 0.00 0.00 0.00 45 1018.1
20200814065330 61 269 0.0 1.0 0.00 0.00 0.00 46 1018.0
20200814064343 62 269 0.0 0.0 0.00 0.00 0.00 44 1017.9
20200814063342 63 269 0.0 1.0 0.00 0.00 0.00 44 1017.9
20200814062335 64 269 0.0 1.0 0.00 0.00 0.00 41 1017.7
20200814061348 65 269 0.0 2.0 0.00 0.00 0.00 38 1017.7
20200814060340 66 269 0.0 2.0 0.00 0.00 0.00 35 1017.7
20200814055332 68 269 0.0 3.0 0.00 0.00 0.00 32 1017.7
20200814054330 69 294 0.0 2.0 0.00 0.00 0.00 24 1017.6
20200814053346 70 294 0.0 5.0 0.00 0.00 0.00 22 1017.6
20200814052340 70 327 2.0 4.0 0.00 0.00 0.00 21 1017.6
20200814051332 70 325 0.0 6.0 0.00 0.00 0.00 22 1017.4
20200814050345 71 17 0.0 3.0 0.00 0.00 0.00 21 1017.4
20200814045340 71 20 2.0 6.0 0.00 0.00 0.00 19 1017.3
20200814044332 71 11 0.0 8.0 0.00 0.00 0.00 21 1017.2
20200814043346 71 317 1.0 7.0 0.00 0.00 0.00 19 1017.2
20200814042337 72 43 0.0 8.0 0.00 0.00 0.00 22 1017.2
20200814041329 71 34 1.0 4.0 0.00 0.00 0.00 25 1017.1
20200814040346 71 20 1.0 3.0 0.00 0.00 0.00 25 1017.1
20200814035339 72 20 0.0 2.0 0.00 0.00 0.00 26 1017.1
20200814034332 73 40 0.0 4.0 0.00 0.00 0.00 23 1016.8
20200814033348 74 316 0.0 1.0 0.00 0.00 0.00 24 1016.8
20200814032340 75 316 0.0 7.0 0.00 0.00 0.00 22 1016.6
20200814031336 76 355 1.0 7.0 0.00 0.00 0.00 23 1016.6
20200814030331 77 97 2.0 6.0 0.00 0.00 0.00 23 1016.6
20200814025343 77 30 0.0 5.0 0.00 0.00 0.00 23 1016.2
20200814024335 78 94 1.0 14.0 0.00 0.00 0.00 22 1016.1
20200814023335 79 86 1.0 6.0 0.00 0.00 0.00 23 1016.1
20200814022344 79 36 1.0 8.0 0.00 0.00 0.00 23 1016.1
20200814021335 80 61 1.0 7.0 0.00 0.00 0.00 23 1016.1
20200814020330 81 30 3.0 9.0 0.00 0.00 0.00 23 1016.1
20200814015346 83 32 3.0 11.0 0.00 0.00 0.00 21 1016.1
20200814014342 84 17 2.0 7.0 0.00 0.00 0.00 21 1015.9
20200814013329 84 50 4.0 11.0 0.00 0.00 0.00 19 1015.9
20200814012342 85 24 3.0 8.0 0.00 0.00 0.00 20 1015.9
20200814011334 85 51 3.0 14.0 0.00 0.00 0.00 20 1015.9
20200814010348 86 105 1.0 11.0 0.00 0.00 0.00 20 1015.9
20200814005345 86 342 2.0 9.0 0.00 0.00 0.00 20 1016.0
20200814004337 86 20 5.0 12.0 0.00 0.00 0.00 20 1016.0
20200814003331 87 5 4.0 11.0 0.00 0.00 0.00 21 1016.0
20200814002344 87 37 4.0 10.0 0.00 0.00 0.00 21 1016.0
20200814001338 87 355 3.0 9.0 0.00 0.00 0.00 21 1016.0
20200814000333 87 79 3.0 8.0 0.00 0.00 0.00 21 1016.0
20200813235346 87 325 4.0 10.0 0.00 0.00 0.00 21 1015.8
20200813234340 88 11 5.0 9.0 0.00 0.00 0.00 22 1015.6
20200813233332 87 23 1.0 10.0 0.00 0.00 0.00 23 1015.6
20200813232349 87 33 4.0 12.0 0.00 0.00 0.00 24 1015.8
20200813231347 87 342 2.0 8.0 0.00 0.00 0.00 23 1015.8
20200813230339 87 5 5.0 13.0 0.00 0.00 0.00 22 1015.8
20200813225331 87 296 4.0 11.0 0.00 0.00 0.00 23 1016.1
20200813224328 87 28 1.0 8.0 0.00 0.00 0.00 23 1016.1
20200813223329 86 307 1.0 10.0 0.00 0.00 0.00 24 1016.1
20200813222347 86 321 4.0 9.0 0.00 0.00 0.00 24 1016.2
20200813221340 86 338 2.0 8.0 0.00 0.00 0.00 23 1016.2
20200813220332 85 326 3.0 8.0 0.00 0.00 0.00 25 1016.2
20200813215347 85 5 3.0 9.0 0.00 0.00 0.00 25 1016.5
20200813214342 84 325 2.0 9.0 0.00 0.00 0.00 25 1016.6
20200813213335 84 88 2.0 11.0 0.00 0.00 0.00 25 1016.6
20200813212347 83 30 4.0 11.0 0.00 0.00 0.00 26 1016.7
20200813211338 83 348 3.0 8.0 0.00 0.00 0.00 26 1016.9
20200813210334 82 15 5.0 9.0 0.00 0.00 0.00 26 1016.9
20200813205333 82 337 3.0 8.0 0.00 0.00 0.00 27 1017.0
20200813204344 81 35 1.0 8.0 0.00 0.00 0.00 28 1017.1